When you browse on this site, cookies collect data to enhance your experience and personalize the content and advertising you see.
Visit our Privacy Policy to learn more. By continuing to use the site, you agree to this use of cookies and data.
  • Em Portugal
  • Lista de países
  • Para 7 dias
  • Temperatura da água
  • Mapa do tempo
  • Widgets de tempo
  • user-avatar
    Iniciar Sessão

    Previsão horária em Sevan

    Hoje, 25 Agosto, Domingo

    Tempo Temperatura Precipitação Vento Pressão Humidade
    00:00 +20°C° 0 mm 2 m/s 643 mmHg 59%
    01:00 +19°C° 0 mm 2 m/s 643 mmHg 60%
    02:00 +19°C° 0 mm 2 m/s 643 mmHg 60%
    03:00 +20°C° 0 mm 1 m/s 643 mmHg 61%
    04:00 +20°C° 0.1 mm 1 m/s 643 mmHg 60%
    05:00 +20°C° 0.1 mm 1 m/s 643 mmHg 59%
    06:00 +20°C° 0.1 mm 1 m/s 643 mmHg 59%
    07:00 +22°C° 0.1 mm 1 m/s 644 mmHg 52%
    08:00 +25°C° 0.1 mm 1 m/s 645 mmHg 46%
    09:00 +27°C° 0.1 mm 1 m/s 645 mmHg 39%
    10:00 +28°C° 0.1 mm 2 m/s 645 mmHg 35%
    11:00 +29°C° 0.1 mm 3 m/s 645 mmHg 31%
    12:00 +30°C° 0.1 mm 3 m/s 645 mmHg 27%
    13:00 +30°C° 0 mm 3 m/s 645 mmHg 27%
    14:00 +30°C° 0 mm 3 m/s 644 mmHg 28%
    15:00 +30°C° 0 mm 2 m/s 644 mmHg 28%
    16:00 +29°C° 0 mm 3 m/s 644 mmHg 34%
    17:00 +28°C° 0 mm 3 m/s 643 mmHg 39%
    18:00 +27°C° 0 mm 4 m/s 643 mmHg 45%
    19:00 +25°C° 0 mm 4 m/s 643 mmHg 49%
    20:00 +23°C° 0 mm 4 m/s 643 mmHg 53%
    21:00 +21°C° 0 mm 4 m/s 643 mmHg 57%
    22:00 +21°C° 0 mm 4 m/s 643 mmHg 58%
    23:00 +21°C° 0 mm 3 m/s 643 mmHg 58%

    Amanhã, 26 Agosto, Segunda-feira

    Tempo Temperatura Precipitação Vento Pressão Humidade
    00:00 +20°C° 0 mm 2 m/s 643 mmHg 59%
    01:00 +20°C° 0 mm 2 m/s 643 mmHg 60%
    02:00 +19°C° 0 mm 2 m/s 643 mmHg 62%
    03:00 +19°C° 0 mm 2 m/s 643 mmHg 64%
    04:00 +19°C° 0 mm 2 m/s 643 mmHg 64%
    05:00 +19°C° 0 mm 2 m/s 643 mmHg 65%
    06:00 +19°C° 0 mm 2 m/s 643 mmHg 65%
    07:00 +21°C° 0 mm 2 m/s 644 mmHg 57%
    08:00 +24°C° 0 mm 2 m/s 644 mmHg 50%
    09:00 +27°C° 0 mm 2 m/s 645 mmHg 42%
    10:00 +28°C° 0.3 mm 2 m/s 645 mmHg 39%
    11:00 +29°C° 0.3 mm 2 m/s 645 mmHg 35%
    12:00 +30°C° 0.3 mm 3 m/s 645 mmHg 31%
    13:00 +31°C° 0.2 mm 3 m/s 645 mmHg 31%
    14:00 +31°C° 0.2 mm 3 m/s 644 mmHg 30%
    15:00 +31°C° 0.2 mm 3 m/s 644 mmHg 30%
    16:00 +30°C° 0.1 mm 3 m/s 644 mmHg 36%
    17:00 +28°C° 0.1 mm 4 m/s 643 mmHg 42%
    18:00 +26°C° 0.1 mm 5 m/s 643 mmHg 48%
    19:00 +25°C° 0.5 mm 4 m/s 643 mmHg 56%
    20:00 +22°C° 0.5 mm 4 m/s 643 mmHg 63%
    21:00 +20°C° 0.5 mm 4 m/s 643 mmHg 70%
    22:00 +19°C° 1.2 mm 4 m/s 643 mmHg 72%
    23:00 +19°C° 1.2 mm 3 m/s 643 mmHg 73%

    Depois de amanhã, 27 Agosto, Terça-feira

    Tempo Temperatura Precipitação Vento Pressão Humidade
    00:00 +18°C° 1.2 mm 3 m/s 643 mmHg 74%
    01:00 +18°C° 0.4 mm 3 m/s 643 mmHg 74%
    02:00 +18°C° 0.4 mm 2 m/s 643 mmHg 73%
    03:00 +18°C° 0.4 mm 2 m/s 643 mmHg 72%
    04:00 +18°C° 0.1 mm 2 m/s 643 mmHg 72%
    05:00 +18°C° 0.1 mm 2 m/s 643 mmHg 72%
    06:00 +18°C° 0.1 mm 1 m/s 643 mmHg 72%
    07:00 +19°C° 0 mm 2 m/s 644 mmHg 65%
    08:00 +21°C° 0 mm 2 m/s 644 mmHg 58%
    09:00 +24°C° 0 mm 2 m/s 644 mmHg 51%
    10:00 +26°C° 0 mm 2 m/s 644 mmHg 45%
    11:00 +27°C° 0 mm 2 m/s 644 mmHg 40%
    12:00 +29°C° 0 mm 3 m/s 644 mmHg 35%
    13:00 +29°C° 0.1 mm 3 m/s 644 mmHg 33%
    14:00 +30°C° 0.1 mm 3 m/s 644 mmHg 32%
    15:00 +30°C° 0.1 mm 3 m/s 643 mmHg 31%
    16:00 +29°C° 0.3 mm 3 m/s 643 mmHg 36%
    17:00 +27°C° 0.3 mm 4 m/s 642 mmHg 41%
    18:00 +26°C° 0.3 mm 4 m/s 642 mmHg 47%
    19:00 +23°C° 0 mm 4 m/s 642 mmHg 52%
    20:00 +21°C° 0 mm 5 m/s 642 mmHg 57%
    21:00 +20°C° 0 mm 5 m/s 642 mmHg 61%
    22:00 +19°C° 0 mm 4 m/s 642 mmHg 61%
    23:00 +19°C° 0 mm 4 m/s 642 mmHg 61%

    28 Agosto, Quarta-feira

    Tempo Temperatura Precipitação Vento Pressão Humidade
    00:00 +18°C° 0 mm 3 m/s 642 mmHg 60%
    01:00 +18°C° 0 mm 3 m/s 641 mmHg 61%
    02:00 +18°C° 0 mm 2 m/s 641 mmHg 62%
    03:00 +17°C° 0 mm 2 m/s 641 mmHg 63%
    04:00 +17°C° 0 mm 2 m/s 641 mmHg 63%
    05:00 +17°C° 0 mm 2 m/s 641 mmHg 63%
    06:00 +17°C° 0 mm 2 m/s 642 mmHg 63%
    07:00 +19°C° 0 mm 2 m/s 642 mmHg 57%
    08:00 +22°C° 0 mm 1 m/s 643 mmHg 51%
    09:00 +24°C° 0 mm 1 m/s 643 mmHg 44%
    10:00 +26°C° 0.1 mm 2 m/s 644 mmHg 41%
    11:00 +27°C° 0.1 mm 2 m/s 644 mmHg 37%
    12:00 +28°C° 0.1 mm 2 m/s 644 mmHg 34%
    13:00 +29°C° 0.1 mm 2 m/s 644 mmHg 31%
    14:00 +30°C° 0.1 mm 2 m/s 643 mmHg 29%
    15:00 +31°C° 0.1 mm 2 m/s 643 mmHg 26%
    16:00 +29°C° 0 mm 2 m/s 643 mmHg 32%
    17:00 +28°C° 0 mm 3 m/s 643 mmHg 37%
    18:00 +27°C° 0 mm 3 m/s 642 mmHg 43%
    19:00 +25°C° 0 mm 3 m/s 642 mmHg 47%
    20:00 +23°C° 0 mm 4 m/s 642 mmHg 52%
    21:00 +21°C° 0 mm 4 m/s 642 mmHg 56%
    22:00 +21°C° 0 mm 3 m/s 642 mmHg 57%
    23:00 +20°C° 0 mm 3 m/s 642 mmHg 57%

    29 Agosto, Quinta-feira

    Tempo Temperatura Precipitação Vento Pressão Humidade
    00:00 +20°C° 0 mm 2 m/s 642 mmHg 58%
    01:00 +19°C° 0 mm 2 m/s 642 mmHg 59%
    02:00 +19°C° 0 mm 2 m/s 642 mmHg 60%
    03:00 +19°C° 0 mm 2 m/s 642 mmHg 61%
    04:00 +19°C° 0 mm 2 m/s 642 mmHg 61%
    05:00 +18°C° 0 mm 2 m/s 642 mmHg 62%
    06:00 +18°C° 0 mm 2 m/s 643 mmHg 62%
    07:00 +21°C° 0 mm 2 m/s 643 mmHg 55%
    08:00 +24°C° 0 mm 2 m/s 644 mmHg 49%
    09:00 +26°C° 0 mm 2 m/s 644 mmHg 43%
    10:00 +27°C° 0 mm 2 m/s 644 mmHg 37%
    11:00 +29°C° 0 mm 3 m/s 644 mmHg 31%
    12:00 +30°C° 0 mm 3 m/s 644 mmHg 26%
    13:00 +31°C° 0 mm 3 m/s 644 mmHg 23%
    14:00 +33°C° 0 mm 3 m/s 643 mmHg 21%
    15:00 +34°C° 0 mm 3 m/s 643 mmHg 19%
    16:00 +31°C° 0.1 mm 3 m/s 642 mmHg 26%
    17:00 +29°C° 0.1 mm 3 m/s 642 mmHg 33%
    18:00 +28°C° 0.1 mm 4 m/s 642 mmHg 39%
    19:00 +26°C° 0.2 mm 3 m/s 642 mmHg 46%
    20:00 +24°C° 0.2 mm 3 m/s 642 mmHg 52%
    21:00 +22°C° 0.2 mm 3 m/s 642 mmHg 58%
    22:00 +21°C° 0.2 mm 2 m/s 642 mmHg 59%
    23:00 +20°C° 0.2 mm 2 m/s 642 mmHg 61%

    30 Agosto, Sexta-feira

    Tempo Temperatura Precipitação Vento Pressão Humidade
    00:00 +20°C° 0.2 mm 1 m/s 642 mmHg 63%
    01:00 +20°C° 0.3 mm 1 m/s 641 mmHg 63%
    02:00 +19°C° 0.3 mm 2 m/s 641 mmHg 64%
    03:00 +19°C° 0.3 mm 2 m/s 641 mmHg 65%
    04:00 +20°C° 0.4 mm 1 m/s 641 mmHg 66%
    05:00 +20°C° 0.4 mm 1 m/s 642 mmHg 67%
    06:00 +20°C° 0.4 mm 1 m/s 642 mmHg 69%
    07:00 +21°C° 0.1 mm 1 m/s 642 mmHg 64%
    08:00 +22°C° 0.1 mm 1 m/s 642 mmHg 60%
    09:00 +23°C° 0.1 mm 2 m/s 642 mmHg 56%
    10:00 +25°C° 0.2 mm 2 m/s 642 mmHg 51%
    11:00 +26°C° 0.2 mm 2 m/s 642 mmHg 47%
    12:00 +27°C° 0.2 mm 2 m/s 642 mmHg 42%
    13:00 +28°C° 0.1 mm 3 m/s 642 mmHg 39%
    14:00 +29°C° 0.1 mm 3 m/s 642 mmHg 36%
    15:00 +30°C° 0.1 mm 3 m/s 641 mmHg 33%
    16:00 +27°C° 0.2 mm 4 m/s 641 mmHg 43%
    17:00 +25°C° 0.2 mm 5 m/s 640 mmHg 54%
    18:00 +22°C° 0.2 mm 6 m/s 640 mmHg 65%
    19:00 +21°C° 0.4 mm 6 m/s 640 mmHg 68%
    20:00 +20°C° 0.4 mm 5 m/s 640 mmHg 72%
    21:00 +17°C° 0.4 mm 5 m/s 640 mmHg 75%
    22:00 +18°C° 0.3 mm 4 m/s 640 mmHg 76%
    23:00 +18°C° 0.3 mm 4 m/s 640 mmHg 77%
    Mostrar mais